Regional Weather Roundup
Issued by NWS

Home | Current Version | Previous Version | Text Only | Print | Product List | Glossary On
Versions: 1 2 3 4 5 6 7 8 9 10 11 12 13 14 15 16 17 18 19 20 21 22 23 24 25 26 27 28 29 30 31 32 33 34 35 36 37 38 39 40 41 42 43 44 45 46 47 48 49 50
000
ASUS44 KMEG 170010
RWRTN
TENNESSEE HOURLY STATE WEATHER ROUNDUP
NATIONAL WEATHER SERVICE MEMPHIS TN
600 PM CST SAT DEC 16 2017

TNZ002-004-019-021-049-052-054-088>092-170100-
WEST TENNESSEE

CITY           SKY/WX    TMP DP  RH WIND       PRES   REMARKS
MEMPHIS INTL   PTCLDY    46  30  53 S7        30.16R
NWS MEMPHIS      N/A     50 N/A N/A MISG        N/A
JACKSON        PTCLDY    44  30  57 S3        30.18R
DYERSBURG      PTCLDY    48  30  49 CALM      30.16R
SOMERVILLE     CLEAR     48  28  46 CALM      30.15R
COVINGTON      PTCLDY    46  30  53 S3        30.16S
UNION CITY     CLEAR     46  30  53 S9        30.14S
BOLIVAR        CLEAR     46  30  53 SE3       30.16S
PARIS          PTCLDY    43  28  56 S8        30.14R
HUNTINGDON     CLEAR     46  30  53 S7        30.15R
LEXINGTON      CLEAR     46  30  53 S3        30.18R
SELMER         CLEAR     46  30  53 S6        30.18R
SAVANNAH       CLEAR     43  32  65 CALM      30.19R
$$

TNZ008-025-027-028-033-062-065-066-170100-
NORTH MIDDLE TENNESSEE

CITY           SKY/WX    TMP DP  RH WIND       PRES   REMARKS
NASHVILLE      CLOUDY    44  29  55 S6        30.20R
PORTLAND       CLEAR     43  30  61 S8        30.18R
CLARKSVILLE    CLOUDY    45  26  47 S6        30.16S
SMYRNA         CLOUDY    43  30  60 S3        30.22R
COOKEVILLE     CLEAR     30  25  80 CALM      30.19S
GALLATIN       PTCLDY    43  30  61 SE5       30.22R
CROSSVILLE     CLOUDY    38  27  64 S6        30.20R WCI  33
$$

TNZ061-075-076-078-094-096-097-170100-
SOUTH MIDDLE TENNESSEE

CITY           SKY/WX    TMP DP  RH WIND       PRES   REMARKS
FAYETTEVILLE   CLEAR     43  30  61 S7        30.21R
TULLAHOMA      CLEAR     43  28  56 CALM      30.20R
MCMINNVILLE    CLEAR     36  28  75 CALM      30.20S
COLUMBIA       CLEAR     46  28  49 CALM      30.18R
SHELBYVILLE    CLEAR     43  30  61 S3        30.21R
$$

TNZ017-018-042-046-047-170100-
NORTHEAST TENNESSEE

CITY           SKY/WX    TMP DP  RH WIND       PRES   REMARKS
TRI CITIES     CLOUDY    34  27  75 CALM      30.22R
ELIZABETHTON   CLEAR     32  27  80 CALM      30.23R
$$

TNZ012-013-036-069-073-074-170100-
CENTRAL EAST TENNESSEE

CITY           SKY/WX    TMP DP  RH WIND       PRES   REMARKS
KNOXVILLE      CLOUDY    42  30  62 CALM      30.23R
OAK RIDGE      CLOUDY    39  29  67 CALM      30.25R
DOWNTOWN KNOXV CLEAR     37  32  81 CALM      30.25R
GATLINBURG     CLEAR     37  28  70 CALM      30.24R
MORRISTOWN     CLEAR     41  27  56 CALM      30.22R
JACKSBORO      CLEAR     36  28  75 CALM      30.26R
$$

TNZ083-085-099-170100-
SOUTHEAST TENNESSEE

CITY           SKY/WX    TMP DP  RH WIND       PRES   REMARKS
CHATTANOOGA    CLOUDY    41  29  62 CALM      30.23S
DAYTON         CLOUDY    37  32  81 CALM      30.22F
$$

SKY/WX REPORTED AS FAIR MEANS FEW OR NO CLOUDS BELOW
12 THOUSAND FEET.





USA.gov is the U.S. government's official web portal to all federal, state and local government web resources and services.